sat.trackr.live / text

‹ back to catalog

STARLINK-4560

NORAD 53691 · 2022-105AV

PAYLOAD ACTIVE UNKNOWN

§ Identity

Operator
Country
US
Launch date
2022-08-31
Launch site
AFWTR
Launch vehicle
Mass (kg)
RCS (m²)

Purposes: comms

External: N2YO · Heavens-Above · Gunter

§ Orbital elements

Epoch: 2026-09-20T22:42:02.962368Z

Period
93.91 min
Inclination
97.2846°
Eccentricity
0.0001710
Mean motion
15.33435324 rev/d
Perigee alt
464.4 km
Apogee alt
466.7 km
Semi-major
6,843.7 km
B*
-6.8027e-6
RAAN
140.6970°
Arg perigee
91.3847°
Mean anomaly
268.7592°
Rev number
22,281

§ Raw data

STARLINK-45601 53691U 22105AV  26263.94586762 -.00000295  00000+0 -68027-5 0  99952 53691  97.2846 140.6970 0001710  91.3847 268.7592 15.33435324222817

JSON: /api/v1/satellites/53691 · /tle

For live sub-satellite position, see the globe view (requires WebGL).

§ Visibility from observer

Set your observer location to see the next 7 days of passes ≥ 10°. The values pass through the URL so the page stays shareable.

No JS? Fill the form by hand. The geolocation button needs JavaScript.